Location: Stilling
(56.0622°N, 9.9882°E)
Time: 12:13:12
(UTC+00:00)

Cosmos 1934 Rocket - Pass Details

Date: 13 July 2020
Orbit: 939 x 998 km, 83.0° (Epoch: 06 August)

Event Time Altitude Azimuth Distance (km) Brightness Sun altitude
Exits shadow 23:31:25 16° 183° (S) 2,277 5.3 -12.3°
Maximum altitude 23:36:28 80° 99° (E) 1,002 4.1 -12.3°
Drops below altitude 10° 23:42:49 10° 13° (NNE) 2,764 7.8 -12.2°
Sets 23:45:22 0° 13° (NNE) 3,723 9.0 -12.2°
